Regional Weather Roundup
Issued by NWS

Home | Current Version | Previous Version | Text Only | Print | Product List | Glossary On
Versions: 1 2 3 4 5 6 7 8 9 10 11 12 13 14 15 16 17 18 19 20 21 22 23 24 25 26 27 28 29 30 31 32 33 34 35 36 37 38 39 40 41 42 43 44 45 46 47 48 49 50
274
ASUS43 KDTX 271010
RWRMI
MICHIGAN HOURLY REGIONAL WEATHER ROUNDUP
NATIONAL WEATHER SERVICE DETROIT/PONTIAC MI
600 AM EDT THU APR 27 2017

NOTE: "FAIR" INDICATES FEW OR NO CLOUDS BELOW 12,000 FEET WITH NO
SIGNIFICANT WEATHER AND/OR OBSTRUCTION TO VISIBILITY.

MIZ047>049-052>055-059>063-066>070-074>076-081>083-271100-
SOUTHEAST LOWER MICHIGAN

CITY           SKY/WX    TMP DP  RH WIND       PRES   REMARKS
ADRIAN         CLOUDY    67  54  63 S15G23    29.48S
ALMA           CLOUDY    64  56  75 S10       29.39F
ANN ARBOR      CLOUDY    67  53  61 SE10      29.48F
BAD AXE        CLOUDY    62  52  71 S13       29.48F
CARO           CLOUDY    61  52  73 SE9       29.45F
DETROIT CITY   CLOUDY    65  53  65 S8        29.51R
DETROIT        CLOUDY    65  54  67 S12       29.50F
FLINT          PTCLDY    61  51  70 S10       29.46F
GROSSE ILE     CLOUDY    58  53  83 S7        29.50S
HILLSDALE      CLOUDY    64  54  68 S13G20    29.46R
HOWELL         CLOUDY    65  50  58 S17       29.45F

CITY           SKY/WX    TMP DP  RH WIND       PRES   REMARKS
JACKSON        MOCLDY    66  52  60 S16G24    29.44F
LAMBERTVILLE   CLOUDY    68  53  59 S9        29.50S
LANSING        CLOUDY    67  52  58 S13       29.42F
LAPEER         FAIR      60  52  75 SE10G16   29.48F
MASON          MOCLDY    65  55  68 S12G17    29.43F
MONROE         CLOUDY    68  53  59 S12       29.50S
PONTIAC        CLOUDY    61  52  72 SE8       29.48F
PORT HOPE        N/A     59  52  77 SE9       29.47S
PORT HURON     CLOUDY    61  50  67 SE8       29.52S
TRI CITIES     CLOUDY    66  54  65 SE12      29.42F
MIDLAND        FAIR      66  54  63 SE10      29.40F
TROY           PTCLDY    58  52  80 CALM      29.52S
SAGINAW HB     PTCLDY    63  48  59 SE13      29.43F
$$
MIZ043>046-050>051-056>058-064>065-071>073-077>080-271100-
SOUTHWEST LOWER MICHIGAN

CITY           SKY/WX    TMP DP  RH WIND       PRES   REMARKS
BATTLE CREEK   CLOUDY    65  57  75 SW16G26   29.42S
BENTON HARBOR  CLOUDY    62  56  80 S13G21    29.37F
BIG RAPIDS     CLOUDY    59  57  93 CALM      29.35S
COLDWATER      CLOUDY    64  56  75 SW10G23   29.44S
FREMONT        FAIR      57  57 100 CALM      29.34F FOG
HOLLAND        CLOUDY    59  57  93 S8        29.37F
GRAND RAPIDS   CLOUDY    62  60  93 S14       29.37F
IONIA          FAIR      65  54  67 S10       29.38F
KALAMAZOO      CLOUDY    63  56  78 S14       29.42R
LUDINGTON      CLOUDY    57  57 100 SE3       29.31F FOG
MARSHALL       CLOUDY    67  56  66 S17G26    29.43R
MOUNT PLEASANT CLOUDY    64  55  72 SE7       29.37F
MUSKEGON       LGT RAIN  60  58  92 SE8       29.34F FOG
SOUTH HAVEN    CLOUDY    60  58  94 S6        29.37S
$$
MIZ016>042-271100-
NORTHERN LOWER MICHIGAN

CITY           SKY/WX    TMP DP  RH WIND       PRES   REMARKS
ALPENA         CLOUDY    53  51  93 SE6       29.43S
BEAVER ISLAND  CLOUDY    52  51  99 E3        29.35F FOG
BELLAIRE       CLOUDY    57  55  95 CALM      29.35F FOG
CADILLAC       CLOUDY    60  57  89 SE9       29.34F
CHARLEVOIX     CLOUDY    57  57 100 CALM      29.38R FOG
FRANKFORT      CLOUDY    56  56 100 CALM      29.30F FOG
GAYLORD        CLOUDY    62  55  77 SE10      29.37F
GRAYLING       CLOUDY    61  57  85 SE10G18   29.38F
HARBOR SPRINGS PTCLDY    53  53 100 E6        29.36F FOG
HOUGHTON LAKE  PTCLDY    62  56  80 SE9       29.38F
MANISTEE       CLOUDY    57  57 100 E6        29.30F FOG
OSCODA         PTCLDY    60  50  70 S12G18    29.44F
PELLSTON       CLOUDY    51  48  89 CALM      29.38F
ROGERS CITY    CLOUDY    59  55  86 SE7       29.41S
TRAVERSE CITY  CLOUDY    57  56  96 CALM      29.30F FOG
$$
MIZ007>008-015-271100-
EASTERN UPPER MICHIGAN

CITY           SKY/WX    TMP DP  RH WIND       PRES   REMARKS
KINROSS        CLOUDY    49  49 100 E8        29.39F FOG
MACKINAC ISLAN CLOUDY    44  44 100 E14G23    29.37F FOG
NEWBERRY       LGT RAIN  44  43  97 NE6       29.38F
S. S. MARIE    CLOUDY    53  51  93 E8        29.38F
MUNISING         N/A     35  34  96 NW13      29.41F WCI  26
$$
MIZ004>006-011>014-085-271100-
CENTRAL UPPER MICHIGAN

CITY           SKY/WX    TMP DP  RH WIND       PRES   REMARKS
MANISTIQUE     DRIZZLE   39  38  97 N8        29.36F WCI  34
ESCANABA       RAIN      38  37  97 VRB6      29.37F WCI  33
MENOMINEE      RAIN      41  39  93 N9        29.36F
SAWYER-GWINN   LGT SNOW  32  31  97 N13       29.40F WCI  22
$$
MIZ001>003-009>011-084-271100-
WESTERN UPPER MICHIGAN

CITY           SKY/WX    TMP DP  RH WIND       PRES   REMARKS
IRON MOUNTAIN  LGT RAIN  34  31  88 N10       29.38F WCI  26
HOUGHTON       LGT SNOW  29  26  89 N8        29.44F FOG     WCI  21
IRONWOOD       LGT SNOW  27  25  93 N10       29.50F FOG     WCI  17
$$

ABBREVIATIONS USED IN REMARKS
   TC - TEMPERATURE IN CELSIUS
  WCI - WIND CHILL INDEX
   HX - HEAT INDEX
  VSB - VISIBILITY





USA.gov is the U.S. government's official web portal to all federal, state and local government web resources and services.